[[{"header":{"parameterUnit":"m.s-1","parameterCategory":1,"la1":30.2991,"la2":30.254,"lo1":-89.0895,"lo2":-89.0444,"dy":0.0017,"dx":0.0017,"nx":28,"ny":28,"refTime":"2023-09-21T03:00:00:Z","depth":0,"parameterNumber":2,"parameterNumberName":"U-component_of_WINDS"},"data":[0,0,0,0,0,0,0,0,0,0,0,0,0,0,0,0,0,0,0,0,0,0,0,0,0,0,0,0,0,0,0,0,0,0,0,0,0,0,0,0,0,0,0,0,0,0,0,0,0,0,0,0,0,0,0,0,0,0,-6.1099,-6.1099,0,-6.1122,-6.1123,-6.1123,-6.0993,-6.0989,-6.0985,-6.0982,-6.1009,-6.1013,-6.1017,0,0,0,0,0,0,0,0,0,0,0,0,0,-6.0948,-6.0951,-6.1099,-6.1099,-6.11,-6.1122,-6.1123,-6.1123,-6.0993,-6.0989,-6.0984,-6.098,-6.1008,-6.1013,-6.1018,0,0,0,0,0,0,0,0,0,0,0,0,0,-6.0997,-6.0952,-6.1099,-6.1038,-6.1032,-6.1122,-6.1123,-6.1123,-6.0994,-6.0989,-6.0983,-6.0978,-6.1006,-6.1012,-6.1019,-6.117,0,0,-6.1038,-6.1041,0,0,0,0,0,0,0,0,-6.0994,-6.1002,-6.1046,-6.1042,-6.1036,-6.1049,-6.1079,-6.1139,-6.0996,-6.1009,-6.0981,-6.0975,-6.1027,-6.1031,-6.1048,-6.1171,-6.1172,-6.1038,-6.1042,-6.1045,-6.1047,0,0,0,0,0,0,0,-6.0991,-6.1001,-6.1108,-6.1047,-6.1041,-6.1011,-6.1011,-6.109,-6.1049,-6.1007,-6.0998,-6.1002,-6.1023,-6.1042,-6.1048,-6.1173,-6.1038,-6.1044,-6.1048,-6.105,-6.1423,-6.1429,0,0,0,0,0,0,-6.0995,-6.0999,-6.1108,-6.1109,-6.1001,-6.1018,-6.1019,-6.105,-6.1048,-6.1042,-6.1007,-6.0996,-6.1034,-6.1041,-6.1048,-6.1225,-6.1045,-6.1051,-6.1055,-6.1417,-6.1424,-6.1431,0,0,0,0,0,0,-6.0992,-6.1006,-6.1107,-6.1051,-6.1062,-6.1026,-6.1063,-6.1054,-6.1072,-6.1048,-6.104,-6.1033,-6.103,-6.1039,-6.1141,-6.1225,-6.1054,-6.106,-6.1409,-6.1419,-6.1427,-6.1581,0,0,0,0,0,0,-6.0988,-6.1006,-6.1061,-6.1054,-6.1065,-6.1197,-6.1068,-6.1058,-6.1083,-6.1069,-6.1071,-6.1065,-6.1026,-6.1132,-6.1147,-6.123,-6.1064,-6.1402,-6.1414,-6.1424,-6.1568,-6.1594,-6.1617,0,0,0,0,0,-6.0984,-6.1104,-6.1065,-6.1079,-6.1134,-6.1202,-6.1209,-6.1161,-6.1091,-6.1147,-6.1132,-6.1065,-6.1214,-6.1143,-6.1159,-6.1246,-6.1396,-6.141,-6.1424,-6.1558,-6.1589,-6.1616,0,0,0,0,0,0,-6.1123,-6.1102,-6.1058,-6.1179,-6.1194,-6.118,-6.1249,-6.1196,-6.1231,-6.1216,-6.1156,-6.1158,-6.127,-6.1268,-6.119,-6.1393,-6.1293,-6.131,-6.1389,-6.1419,-6.1443,-6.1441,-6.107,0,0,0,0,0,-6.1168,-6.1224,-6.1203,-6.1313,-6.1322,-6.1285,-6.1313,-6.1275,-6.1288,-6.1293,-6.1285,-6.1301,-6.1351,-6.1385,-6.143,-6.1568,-6.1567,-6.1636,-6.166,-6.168,-6.1696,-6.177,-6.1801,-6.1476,-6.1476,-6.1475,0,0,-6.1262,-6.1257,-6.1296,-6.1341,-6.1347,-6.1408,-6.1291,-6.136,-6.1405,-6.1304,-6.1398,-6.1394,-6.1408,-6.1529,-6.1582,-6.1531,-6.1786,-6.1698,-6.1714,-6.1718,-6.1787,-6.1818,-6.1846,-6.1485,-6.1483,-6.1482,0,0,-6.1463,-6.1465,-6.1556,-6.1565,-6.1577,-6.1552,-6.1574,-6.157,-6.1562,-6.1656,-6.1582,-6.1636,-6.1724,-6.1737,-6.1755,-6.1965,-6.1906,-6.1982,-6.2108,-6.2181,-6.2207,-6.2229,-6.2304,-6.2332,-6.1998,-6.1998,-6.1999,0,-6.1577,-6.1664,-6.161,-6.1685,-6.1707,-6.1619,-6.1712,-6.1724,-6.1751,-6.1769,-6.1712,-6.1821,-6.1824,-6.1947,-6.1999,-6.2017,-6.2041,-6.198,-6.2207,-6.2229,-6.2249,-6.232,-6.2349,-6.2007,-6.2006,-6.2005,-6.2005,0,-6.1805,-6.1868,-6.1941,-6.1967,-6.1998,-6.2082,-6.2043,-6.2081,-6.2041,-6.2023,-6.2122,-6.2123,-6.2167,-6.2194,-6.2156,-6.2313,-6.2281,-6.2217,-6.2115,-6.229,-6.2356,-6.2383,-6.202,-6.2017,-6.2014,-6.2012,0,0,-6.2092,-6.209,-6.2117,-6.2129,-6.2136,-6.2184,-6.2266,-6.2308,-6.2342,-6.2365,-6.2432,-6.2509,-6.245,-6.2471,-6.2435,-6.2499,-6.2666,-6.2427,-6.2426,-6.2471,-6.284,-6.2888,-6.292,-6.2628,-6.2633,-6.2637,-6.2839,0,-6.2288,-6.2424,-6.238,-6.2519,-6.2576,-6.2495,-6.2566,-6.2579,-6.2566,-6.2614,-6.26,-6.2655,-6.2573,-6.2585,-6.2646,-6.2633,-6.2739,-6.2618,-6.2691,-6.2694,-6.2688,-6.2955,-6.3005,-6.3195,-6.2865,-6.2869,-6.2872,0,-6.2534,-6.2566,-6.2711,-6.271,-6.2732,-6.2797,-6.2833,-6.288,-6.2895,-6.288,-6.2906,-6.2856,-6.2938,-6.2837,-6.295,-6.2868,-6.2896,-6.2895,-6.2901,-6.2905,-6.2793,-6.2965,-6.3255,-6.3283,-6.2912,-6.2909,-6.2906,0,-6.2729,-6.2808,-6.2905,-6.2918,-6.2919,-6.2967,-6.297,-6.2979,-6.3008,-6.3041,-6.3059,-6.3102,-6.3125,-6.316,-6.3124,-6.3054,-6.3243,-6.3139,-6.3234,-6.3236,-6.3276,-6.3274,-6.3574,-6.3297,-6.3296,-6.3296,-6.3295,0,-6.2952,-6.3044,-6.2992,-6.3052,-6.3153,-6.3102,-6.3205,-6.3199,-6.3208,-6.3267,-6.32,-6.3257,-6.3206,-6.3259,-6.3233,-6.333,-6.3342,-6.3333,-6.3325,-6.3339,-6.334,-6.3355,-6.3341,-6.3303,-6.3301,-6.33,-6.3299,0,-6.3185,-6.3154,-6.3255,-6.3249,-6.325,-6.3325,-6.332,-6.3376,-6.3359,-6.3434,-6.3449,-6.3422,-6.3481,-6.345,-6.3511,-6.3493,-6.362,-6.3594,-6.3614,-6.3607,-6.3704,-6.3695,-6.4023,-6.4064,-6.3761,-6.3764,-6.3767,0,-6.3329,-6.3397,-6.3399,-6.3433,-6.3441,-6.3496,-6.3526,-6.348,-6.3514,-6.3537,-6.3591,-6.3644,-6.3684,-6.3783,-6.377,-6.3817,-6.3792,-6.3904,-6.3798,-6.3811,-6.3793,-6.3789,-6.3796,-6.3924,-6.3928,-6.3931,-6.3933,0,-6.3587,-6.3569,-6.3613,-6.3653,-6.369,-6.372,-6.3744,-6.3776,-6.3731,-6.3773,-6.3832,-6.3863,-6.3926,-6.398,-6.4022,-6.4027,-6.3974,-6.3967,-6.3991,-6.4005,-6.4014,-6.4011,-6.3671,-6.3959,-6.3956,-6.3954,-6.3953,-6.3952,-6.3779,-6.3837,-6.3847,-6.39,-6.3913,-6.3938,-6.3991,-6.3981,-6.4029,-6.4075,-6.4046,-6.4117,-6.4132,-6.4182,-6.4195,-6.425,-6.4205,-6.4241,-6.425,-6.4259,-6.4272,-6.4007,-6.4258,-6.4257,-6.4256,-6.4256,-6.4255,0,-6.4033,-6.4037,-6.4086,-6.4121,-6.4164,-6.411,-6.4134,-6.4173,-6.4235,-6.4254,-6.4295,-6.4365,-6.4418,-6.441,-6.4459,-6.4505,-6.4482,-6.452,-6.4515,-6.4518,-6.4309,-6.4283,-6.4538,-6.4538,-6.4538,-6.4538,-6.4537,-6.4537,-6.417,-6.4265,-6.4249,-6.4352,-6.4355,-6.4422,-6.4441,-6.4464,-6.4479,-6.4559,-6.4603,-6.4597,-6.4606,-6.4656,-6.4703,-6.47,-6.4721,-6.4767,-6.4755,-6.456,-6.4532,-6.4505,-6.448,-6.4772,-6.4773,-6.4959,-6.496,-6.4962]},{"header":{"parameterUnit":"m.s-1","parameterCategory":1,"la1":30.2991,"la2":30.254,"lo1":-89.0895,"lo2":-89.0444,"dy":0.0017,"dx":0.0017,"nx":28,"ny":28,"refTime":"2023-09-21T03:00:00:Z","depth":0,"parameterNumber":3,"parameterNumberName":"V-component_of_WINDS"},"data":[0,0,0,0,0,0,0,0,0,0,0,0,0,0,0,0,0,0,0,0,0,0,0,0,0,0,0,0,0,0,0,0,0,0,0,0,0,0,0,0,0,0,0,0,0,0,0,0,0,0,0,0,0,0,0,0,0,0,0.5955,0.5955,0,0.5983,0.5983,0.5983,0.6039,0.604,0.6041,0.6042,0.6068,0.6068,0.6068,0,0,0,0,0,0,0,0,0,0,0,0,0,0.595,0.595,0.5955,0.5955,0.5956,0.5983,0.5983,0.5983,0.6039,0.604,0.6041,0.6043,0.6069,0.6068,0.6068,0,0,0,0,0,0,0,0,0,0,0,0,0,0.5962,0.595,0.5955,0.5987,0.599,0.5982,0.5983,0.5983,0.6038,0.604,0.6042,0.6043,0.6069,0.6068,0.6068,0.6031,0,0,0.6066,0.6066,0,0,0,0,0,0,0,0,0.5961,0.5962,0.5982,0.5984,0.5988,0.6009,0.5991,0.5999,0.6038,0.602,0.6042,0.6044,0.6047,0.6049,0.605,0.6033,0.6034,0.6066,0.6066,0.6066,0.6066,0,0,0,0,0,0,0,0.596,0.5961,0.5966,0.5982,0.5986,0.5999,0.6003,0.5993,0.6024,0.6021,0.6026,0.6028,0.6049,0.605,0.6051,0.6034,0.6066,0.6066,0.6065,0.6065,0.5988,0.5987,0,0,0,0,0,0,0.5955,0.596,0.5965,0.5967,0.5979,0.5998,0.6002,0.6001,0.6024,0.6029,0.6027,0.6031,0.605,0.6052,0.6052,0.601,0.6066,0.6065,0.6065,0.599,0.5988,0.5986,0,0,0,0,0,0,0.5955,0.5955,0.5964,0.5965,0.5967,0.5996,0.5994,0.6,0.6001,0.6028,0.6034,0.6022,0.6052,0.6053,0.6036,0.6012,0.6065,0.6065,0.5992,0.5989,0.5987,0.5927,0,0,0,0,0,0,0.5954,0.5955,0.5941,0.5964,0.5967,0.5947,0.5993,0.6,0.6001,0.6006,0.6025,0.603,0.6053,0.6037,0.6036,0.6012,0.6064,0.5994,0.5991,0.5988,0.5931,0.5923,0.5915,0,0,0,0,0,0.5954,0.5923,0.594,0.594,0.595,0.5946,0.5947,0.5975,0.5998,0.5985,0.6002,0.6029,0.6016,0.6035,0.6034,0.601,0.5996,0.5992,0.5988,0.5935,0.5924,0.5915,0,0,0,0,0,0,0.5895,0.5926,0.5946,0.5921,0.593,0.5955,0.5939,0.5963,0.5966,0.597,0.6005,0.6009,0.5987,0.5998,0.6018,0.5976,0.601,0.6006,0.597,0.596,0.5952,0.5949,0.6064,0,0,0,0,0,0.5879,0.5873,0.5901,0.5876,0.588,0.5909,0.5908,0.5929,0.594,0.5944,0.596,0.5969,0.5967,0.5965,0.5964,0.5934,0.5938,0.5918,0.591,0.5903,0.5898,0.5882,0.5873,0.5973,0.5973,0.5973,0,0,0.5846,0.5863,0.5857,0.5865,0.5875,0.5867,0.5912,0.5902,0.5897,0.5942,0.5927,0.594,0.5952,0.5928,0.5919,0.5936,0.5872,0.5898,0.5892,0.5891,0.5877,0.5868,0.5859,0.5971,0.5971,0.5971,0,0,0.5782,0.5794,0.5775,0.5784,0.5799,0.5818,0.5814,0.5836,0.5846,0.5832,0.5865,0.586,0.5856,0.5863,0.5866,0.5807,0.5831,0.5806,0.5763,0.5747,0.574,0.5733,0.571,0.5702,0.5801,0.5801,0.5801,0,0.5738,0.5729,0.5762,0.575,0.5752,0.5795,0.5775,0.5783,0.5796,0.5797,0.5817,0.5812,0.5824,0.5802,0.5788,0.579,0.5785,0.5802,0.5738,0.5732,0.5726,0.5704,0.5696,0.5798,0.5798,0.5799,0.5799,0,0.5675,0.5668,0.5651,0.5663,0.5664,0.5648,0.5678,0.5675,0.5697,0.5714,0.5699,0.5715,0.5718,0.5715,0.5736,0.5697,0.5707,0.5732,0.5766,0.5712,0.5693,0.5685,0.5793,0.5794,0.5795,0.5796,0,0,0.5571,0.5603,0.5596,0.5602,0.5623,0.5618,0.5605,0.5609,0.5605,0.5614,0.5603,0.5599,0.5623,0.5626,0.5649,0.5635,0.5585,0.5662,0.5663,0.5646,0.5542,0.5521,0.5511,0.5603,0.5602,0.5601,0.554,0,0.5509,0.5488,0.5518,0.549,0.5484,0.5525,0.5514,0.5524,0.5541,0.5538,0.5556,0.5552,0.5585,0.5587,0.5576,0.5594,0.5565,0.5599,0.5592,0.5591,0.5585,0.5501,0.5479,0.5421,0.5533,0.5532,0.5531,0,0.5434,0.544,0.5411,0.5434,0.5432,0.5421,0.5428,0.5425,0.5438,0.5451,0.5456,0.5483,0.5471,0.5507,0.549,0.5513,0.5512,0.5521,0.5519,0.5518,0.5556,0.5495,0.5403,0.5393,0.5519,0.552,0.5521,0,0.5359,0.536,0.5343,0.5347,0.5374,0.5365,0.5376,0.5391,0.5392,0.5398,0.5398,0.5403,0.5404,0.5407,0.5434,0.5457,0.5414,0.5451,0.5423,0.5422,0.5409,0.5409,0.5314,0.5413,0.5413,0.5413,0.5413,0,0.5286,0.5266,0.531,0.5299,0.5278,0.5313,0.5292,0.5307,0.5321,0.5313,0.535,0.5342,0.5379,0.5376,0.5397,0.538,0.5381,0.539,0.5395,0.5385,0.5384,0.5383,0.5387,0.5411,0.5411,0.5412,0.5412,0,0.5197,0.5226,0.521,0.5237,0.5243,0.5227,0.525,0.5241,0.5261,0.5251,0.5251,0.5281,0.5279,0.5307,0.531,0.5324,0.5296,0.531,0.5291,0.5294,0.5264,0.5265,0.5162,0.515,0.5259,0.5258,0.5257,0,0.5147,0.5133,0.516,0.5158,0.5167,0.5163,0.5164,0.5199,0.5198,0.5214,0.5203,0.5204,0.5206,0.52,0.5221,0.5224,0.5237,0.5201,0.5237,0.5227,0.5234,0.5233,0.5231,0.5192,0.519,0.5189,0.5188,0,0.5055,0.5071,0.5071,0.5077,0.5078,0.5084,0.5092,0.5088,0.5126,0.5124,0.5122,0.5124,0.5127,0.5127,0.5134,0.5145,0.5172,0.5177,0.5171,0.5159,0.5148,0.5151,0.5268,0.5179,0.518,0.518,0.5181,0.5181,0.4983,0.4973,0.499,0.4989,0.5,0.5007,0.5,0.5019,0.5019,0.5024,0.5045,0.504,0.5055,0.5067,0.5075,0.5071,0.5088,0.5079,0.5076,0.5072,0.5066,0.515,0.5073,0.5073,0.5073,0.5073,0.5074,0,0.4892,0.4905,0.4905,0.4916,0.4915,0.4944,0.4955,0.4952,0.4947,0.4959,0.4961,0.4959,0.4959,0.4982,0.4985,0.4977,0.499,0.4977,0.4976,0.4978,0.5051,0.5056,0.4966,0.4966,0.4966,0.4966,0.4966,0.4966,0.4844,0.4827,0.4844,0.4833,0.4847,0.4842,0.4846,0.4853,0.4863,0.4859,0.486,0.4875,0.4892,0.4896,0.4898,0.4905,0.4903,0.4885,0.4895,0.4963,0.4973,0.4983,0.4987,0.4885,0.4885,0.4823,0.4822,0.4822]}]]